Terminal Aerodrome Forecast
Issued by NWS Spokane, WA

Home | Current Version | Previous Version | Text Only | Print | Product List | Glossary On
Versions: 1 2 3 4 5 6 7 8 9 10 11 12 13 14 15 16 17 18 19 20 21 22 23 24 25 26 27 28 29 30 31 32 33 34 35 36 37 38 39 40 41 42 43 44
000
FTUS46 KOTX 290814 AAA
TAFGEG
TAF AMD
KGEG 290814Z 2908/3006 04005KT 1/4SM FG VV001
     FM291900 04004KT 1SM BR OVC005
     FM292200 VRB03KT 6SM BR BKN005
     FM300200 35003KT 6SM BR SCT005=

USA.gov is the U.S. government's official web portal to all federal, state and local government web resources and services.